Location: A�t Bou Chrif
(32.7193°N, 5.2385°W)
Time: 23:13:14
(UTC+00:00)

Cosmos 2228 Rocket - Pass Details

Date: 08 August 2020
Orbit: 617 x 653 km, 82.5° (Epoch: 18 September)

Event Time Altitude Azimuth Distance (km) Brightness Sun altitude
Rises 20:52:26 0° 348° (NNW) 2,908 7.2 -19.5°
Reaches altitude 10° 20:54:42 10° 343° (NNW) 1,994 6.4 -19.9°
Maximum altitude 20:59:00 54° 267° (W) 754 3.7 -20.6°
Enters shadow 21:01:39 22° 197° (SSW) 1,364 4.6 -21.1°
